Regional Weather Roundup
Issued by NWS

Home | Current Version | Previous Version | Graphics & Text | Print | Product List | Glossary On
Versions: 1 2 3 4 5 6 7 8 9 10 11 12 13 14 15 16 17 18 19 20 21 22 23 24 25 26 27 28 29 30 31 32 33 34 35 36 37 38 39 40 41 42 43 44 45 46 47 48 49 50
000
ASUS45 KBOU 030710
RWRCO

WEATHER ROUNDUP FOR COLORADO
NATIONAL WEATHER SERVICE PUEBLO CO
100 AM MDT MON AUG 03 2015

NOTE: "FAIR" INDICATES FEW OR NO CLOUDS BELOW 12000 FEET WITH NO
SIGNIFICANT WEATHER AND/OR OBSTRUCTIONS TO VISIBILITY.

COZ001>005-013-030-031-030800-
...NORTHWEST COLORADO...

CITY           SKY/WX    TMP DP  RH WIND       PRES   REMARKS
CRAIG          CLOUDY    61  32  33 E3        30.18S
HAYDEN         CLOUDY    61  50  67 E5        30.20S
MEEKER         LGT RAIN  60  54  80 CALM      30.19F
MOUNT WERNER   NOT AVBL
STEAMBOAT SPGS FAIR      57  50  77 NW6       30.22S
WALDEN         FAIR      54  43  66 SE5       30.30F
$$

COZ006>008-011-030800-
...WEST CENTRAL VALLEYS...

CITY           SKY/WX    TMP DP  RH WIND       PRES   REMARKS
GRAND JUNCTION CLOUDY    65  57  75 E8        30.09F
MONTROSE       LGT RAIN  62  58  86 CALM      30.18R
EAGLE          CLOUDY    63  54  72 CALM      30.26R
RIFLE          CLOUDY    62  57  83 E6        30.17F
DELTA          NOT AVBL
NUCLA          FAIR      61  55  82 MISG      30.19S
$$

COZ017>023-064>068-030800-
...SOUTHWEST COLORADO...

CITY           SKY/WX    TMP DP  RH WIND       PRES   REMARKS
DURANGO        CLOUDY    58  55  90 VRB5      30.24F
CORTEZ         CLEAR     60  58  92 CALM      30.17F
PAGOSA SPRINGS RAIN      56  56 100 E5        30.33F
TELLURIDE      CLOUDY    53  49  84 CALM      30.38S
WOLF CREEK PAS NOT AVBL
$$

COZ009-010-012-014-032>034-037-058>063-030800-
...CENTRAL COLORADO...

CITY           SKY/WX    TMP DP  RH WIND       PRES   REMARKS
ASPEN          CLOUDY    55  52  89 CALM      30.29F
BUENA VISTA    CLOUDY    55  52  90 NW7       30.34F
COPPER MTN     CLOUDY    52  37  58 S14       30.59S
BERTHOUD PASS  MOCLDY    43  32  65 CALM      30.63S
COTTONWOOD PAS CLOUDY    52  48  87 W8        30.46F
GUNNISON       CLOUDY    55  52  88 CALM      30.35R
KREMMLING      CLOUDY    61  43  51 CALM      30.27F
LEADVILLE      LGT RAIN  47  47 100 CALM      30.46F
MONARCH PASS   FOG       43  41  93 E14       30.67F VSB<1/4
SALIDA         NOT AVBL
NIWOT RIDGE    NOT AVBL
SUNLIGHT       CLOUDY    48  46  93 SE6       30.50S
WILKERSON PASS CLOUDY    45  41  87 W5        30.56F
$$

COZ069>075-030800-
...SAN LUIS VALLEY/SANGRE DE CRISTO MOUNTAINS...

CITY           SKY/WX    TMP DP  RH WIND       PRES   REMARKS
ALAMOSA        LGT RAIN  56  53  90 W5        30.31F
LA VETA PASS   CLOUDY    46  45  93 MISG      30.46F FOG
SAGUACHE       CLOUDY    55  54  94 W3        30.33F
$$

COZ035-036-038>040-030800-
...NORTHERN COLORADO FRONT RANGE...

CITY           SKY/WX    TMP DP  RH WIND       PRES   REMARKS
DENVER INTL AP CLOUDY    67  48  50 SE6       30.10S
DMNS CITY PARK NOT AVBL
AURORA         MOCLDY    65  52  61 S8        30.12S
FRONT RANGE AP NOT AVBL
ERIE MUNI ARPT FAIR      69  52  55 CALM      30.06F
BOULDER MUN AP FAIR      77  43  29 SW5       30.07S
CENTENNIAL     CLOUDY    66  51  58 SE8       30.13F
BROOMFIELD     CLOUDY    73  46  38 S3        30.11S
LOVELAND       CLOUDY    72  50  46 SE3       30.07S
LONGMONT       FAIR      69  54  58 CALM      30.07F
$$

COZ041-046-047-076>085-087-088-030800-
...PIKES PEAK/PALMER DIVIDE AND SOUTHERN FOOTHILLS...

CITY           SKY/WX    TMP DP  RH WIND       PRES   REMARKS
COLO. SPRINGS  MOCLDY    64  51  62 NE7       30.18S
A. F. ACADEMY  CLOUDY    58  51  77 N8        30.20S
ELLICOTT       FAIR     N/A N/A N/A SE5       30.17S
FALCON         FAIR      63  50  63 NE3       30.23S
FORT CARSON    CLOUDY    66  52  59 NW8       30.14S
LIMON          PTCLDY    56  50  80 CALM      30.13S
MONUMENT HILL  NOT AVBL
TRINIDAD       CLOUDY    65  55  70 S3        30.14S
$$

COZ042>045-048>051-090-091-030800-
...NORTHEAST COLORADO...

CITY           SKY/WX    TMP DP  RH WIND       PRES   REMARKS
GREELEY ARPT   CLOUDY    70  52  52 SE7       30.06F
AKRON          PTCLDY    69  52  54 S8        30.07S
BURLINGTON     PTCLDY    67  58  72 S9        30.05F
WRAY           FAIR      72  56  57 SW3       30.01F
STERLING       FAIR      64  55  72 SW7       30.01S
HOLYOKE        FAIR      66  55  68 SW6       30.01S
FORT MORGAN    FAIR      67  51  57 CALM      30.07R
$$

COZ086-089-092>099-030800-
...SOUTHEAST COLORADO...

CITY           SKY/WX    TMP DP  RH WIND       PRES   REMARKS
PUEBLO         CLOUDY    72  55  55 NW6       30.06S
LA JUNTA       CLOUDY    72  55  55 SE6       30.05S
LAMAR          CLOUDY    74  63  68 E6        30.00F
SPRINGFIELD      N/A     68  64  87 CALM      30.05F
$$



USA.gov is the U.S. government's official web portal to all federal, state and local government web resources and services.